Theta_e
303 296 292 295 293 290 291 289 287 290 294 294 293 294 298 301 299 300 300 300 301 302 307 306 307 310 316 321 322 322 321 321 321 320 322 323 323 325 326 328 328 328 327 327
299 293 295 297 297 293 290 289 287 291 293 292 291 290 294 296 296 300 301 302 302 302 303 305 305 305 307 311 319 322 322 321 321 322 321 321 323 323 326 327 327 328 328 327
292 292 298 297 295 294 290 288 287 287 291 291 289 289 291 295 297 297 298 301 302 303 305 306 306 305 305 307 310 319 321 321 321 322 319 318 318 317 320 321 324 325 327 327
295 296 295 293 293 295 289 292 291 289 288 282 288 280 286 288 290 294 296 297 299 301 303 305 304 304 304 306 307 312 317 319 319 320 319 319 319 317 318 319 321 322 324 324
290 292 292 291 292 296 291 294 292 291 287 285 284 283 284 287 288 290 293 296 299 301 302 303 303 304 304 305 305 306 312 316 317 318 319 318 318 319 317 318 319 319 320 321
291 295 295 294 296 297 295 291 291 289 286 280 284 283 281 285 289 291 293 294 295 297 298 300 302 302 303 304 304 305 305 312 316 317 317 317 317 316 316 317 318 318 319 319
289 291 292 295 291 294 293 288 279 278 279 277 281 282 285 287 291 292 293 294 295 295 295 297 297 297 301 303 304 308 307 309 315 315 316 316 316 317 317 317 318 318 318 317
285 283 291 294 292 290 292 288 278 272 274 276 282 279 283 290 292 293 294 294 295 294 295 296 298 298 301 301 303 304 308 309 314 315 315 316 316 317 316 315 313 311 309 307
285 285 290 293 294 295 290 287 289 281 272 274 279 281 286 288 290 291 291 292 293 294 295 297 299 299 299 300 300 301 302 303 305 306 304 305 305 305 304 304 304 304 303 304
288 281 288 292 294 295 292 293 284 280 270 269 276 278 280 284 288 291 292 292 293 295 296 297 299 297 297 298 298 299 299 299 300 300 300 300 301 301 302 301 301 300 301 300
289 286 282 289 289 289 290 288 289 288 280 274 271 276 283 287 288 289 291 292 293 295 296 296 297 296 296 296 296 297 298 299 299 298 298 299 299 299 299 299 298 298 298 298
293 289 282 285 286 292 293 290 290 283 278 281 278 279 286 287 288 290 292 293 293 294 296 295 295 296 295 295 295 296 297 298 298 297 297 297 297 297 296 296 296 296 295 296
293 286 281 282 287 288 288 290 291 290 284 281 278 281 289 288 288 289 291 292 292 291 294 294 294 294 294 294 294 295 296 297 297 296 295 294 294 294 294 294 294 294 294 294
295 288 284 279 282 286 286 288 290 289 284 283 283 285 287 286 288 289 290 290 291 291 292 293 294 294 294 294 293 294 295 296 296 294 293 292 292 292 292 293 293 293 293 292
291 284 285 287 287 286 287 288 289 288 288 284 287 286 290 292 290 290 290 290 290 290 292 292 293 294 294 293 292 293 295 295 295 292 291 291 291 290 291 291 292 292 291 291
289 283 285 284 288 286 284 288 289 289 289 289 289 288 295 296 294 291 293 292 291 292 291 292 294 293 293 293 293 293 294 295 295 292 291 289 289 289 290 290 289 288 288 288
285 282 278 277 283 284 281 286 287 288 291 291 286 291 296 294 291 291 292 291 293 293 293 293 293 295 295 293 293 292 293 293 294 293 290 288 287 287 287 287 286 286 286 287
283 282 282 277 275 273 284 289 290 288 289 292 292 293 295 295 297 298 295 294 294 293 294 295 295 293 294 294 292 291 291 291 292 292 291 287 287 286 285 285 286 285 285 285
286 281 278 275 273 278 280 284 285 284 285 291 291 293 294 295 295 293 295 296 297 296 295 292 289 289 288 287 288 289 288 289 289 289 288 286 286 285 285 285 284 284 284 284
284 285 279 277 273 272 280 283 286 288 280 289 292 292 292 293 287 293 298 294 287 284 284 284 282 282 281 282 285 285 284 283 282 283 284 284 284 283 283 282 282 282 283 283
279 280 277 277 275 278 284 286 288 279 281 290 292 293 293 291 294 294 284 281 281 281 280 280 278 277 277 280 281 278 277 276 277 278 278 278 279 279 280 280 280 280 280 281
277 277 277 278 274 272 284 283 281 286 287 287 287 292 293 294 286 281 279 278 277 276 277 278 275 274 274 275 277 275 273 274 274 274 274 274 275 275 276 275 276 276 276 276
275 281 279 281 280 287 287 288 289 286 288 287 283 284 284 283 280 278 276 274 274 274 275 275 274 271 270 271 272 271 270 271 270 270 271 271 272 273 273 272 273 273 274 274
280 284 280 280 284 285 287 284 282 281 282 281 279 280 281 279 278 276 275 274 273 272 271 271 271 269 267 268 268 268 268 268 265 265 268 270 270 269 270 271 272 271 271 272
282 283 281 280 284 282 285 281 281 279 278 276 276 277 277 278 276 275 273 272 271 270 269 268 268 266 265 265 265 264 265 265 265 266 267 267 267 267 268 269 269 270 272 272
281 281 280 279 281 281 280 278 279 278 276 275 274 272 272 275 272 271 269 269 269 267 267 266 265 263 262 262 263 263 263 263 262 264 264 264 265 265 266 266 266 270 272 273
Wind_Speed
4 4 13 11 6 2 5 3 5 3 3 3 8 12 16 11 6 9 10 10 10 12 11 8 9 8 8 7 10 13 11 11 9 6 6 7 9 10 8 9 13 13 11 11
4 15 6 6 5 3 3 4 4 4 1 3 6 12 14 12 9 15 17 15 13 8 7 11 10 8 9 9 12 10 13 11 11 9 5 4 4 5 7 8 11 13 12 11
9 3 11 9 5 7 3 5 3 4 4 1 6 17 13 9 14 12 12 12 10 15 17 15 14 12 8 9 10 12 14 12 11 11 5 3 2 1 4 6 7 9 11 10
10 7 7 4 9 7 7 8 7 3 2 5 1 12 8 3 8 7 9 9 14 17 17 15 9 6 9 12 7 10 10 12 11 12 10 10 9 8 5 4 4 5 9 10
5 7 10 7 6 7 4 6 8 5 3 3 4 5 4 1 7 6 10 15 15 12 9 13 11 10 8 8 8 9 9 8 10 13 13 10 10 7 2 3 5 5 5 7
6 2 7 6 6 14 8 6 6 4 3 7 10 7 5 5 8 6 5 7 7 8 8 9 10 7 7 7 8 7 8 10 10 11 12 12 11 7 5 4 4 3 2 2
4 6 3 5 7 2 5 8 2 1 5 10 1 8 17 2 8 7 8 9 7 6 6 7 8 7 7 9 7 6 8 7 8 10 10 10 10 9 8 6 4 4 2 2
10 5 13 7 7 6 14 9 7 9 7 5 3 12 8 7 8 8 10 8 7 7 6 8 7 7 6 6 6 6 7 6 7 8 8 7 6 4 3 4 3 3 3 3
8 10 2 5 7 13 6 13 7 5 2 2 6 8 9 7 12 10 8 7 8 7 7 7 6 5 6 6 6 6 7 5 6 6 6 5 5 6 5 5 4 3 4 3
3 3 4 9 4 9 11 10 4 1 3 5 6 6 8 6 7 12 11 8 5 6 4 5 5 5 4 4 3 4 5 5 6 7 6 6 6 6 6 5 6 5 5 4
4 3 3 6 12 17 6 9 5 6 7 6 3 8 9 13 6 7 8 7 7 5 3 4 4 3 2 1 4 5 5 6 6 6 6 7 6 6 6 6 6 5 4 4
18 2 8 12 3 8 20 17 18 9 10 9 2 12 3 7 6 7 8 8 4 2 3 4 5 5 5 6 6 7 6 6 6 6 6 6 6 6 6 6 6 5 5 3
15 8 10 4 3 2 14 17 18 20 3 15 8 15 4 6 6 6 7 6 4 2 3 3 4 7 7 7 6 6 6 7 6 6 7 7 7 6 6 6 6 5 5 4
10 10 14 20 8 6 14 20 21 21 15 21 17 29 12 2 8 8 6 7 6 4 3 4 6 8 7 7 7 7 7 6 7 6 6 7 8 8 7 6 5 5 5 5
6 12 16 20 16 6 9 23 24 22 26 18 26 27 25 18 11 7 7 6 5 5 5 7 8 8 8 7 8 7 8 7 6 7 8 10 6 6 6 6 6 4 4 3
3 5 11 24 19 23 14 12 16 25 28 26 26 23 25 17 11 9 14 10 9 12 9 9 10 9 10 12 12 11 10 12 10 10 12 6 7 6 6 5 6 5 3 3
4 4 5 19 11 11 20 26 18 13 24 24 26 33 27 19 6 9 12 10 15 10 10 11 13 13 10 9 11 11 13 8 11 11 9 8 6 6 7 6 6 6 5 4
5 5 3 10 3 17 1 10 21 25 23 21 20 20 20 20 20 18 9 12 14 12 13 13 9 7 7 5 6 6 7 9 10 10 9 7 8 7 6 6 5 3 3 4
15 5 5 7 6 9 4 7 12 14 23 26 23 23 25 27 25 13 10 16 14 12 8 1 3 3 4 5 5 3 4 4 4 4 4 6 6 6 5 2 2 3 3 4
11 11 4 7 9 11 6 4 7 4 14 11 22 26 25 22 15 17 15 7 5 5 4 4 5 5 8 9 4 8 8 8 9 7 6 6 6 5 3 2 2 2 3 6
4 5 13 14 13 7 12 21 5 6 12 16 14 19 21 19 18 9 8 5 5 6 7 8 9 10 10 9 9 12 10 11 7 7 7 7 7 5 4 3 2 3 6 7
12 10 8 8 9 11 7 5 8 9 6 9 7 18 20 20 2 6 7 9 10 10 8 8 9 11 11 12 8 11 12 8 8 7 7 6 5 5 4 4 4 4 5 7
4 12 8 10 8 8 10 15 6 2 5 3 2 3 6 3 3 7 8 10 10 10 9 8 9 10 11 12 12 10 9 10 9 8 5 5 5 5 5 4 5 5 4 5
5 5 4 3 11 17 10 3 5 2 4 2 3 7 3 4 8 11 10 10 9 8 9 7 7 9 10 9 10 9 8 8 6 4 5 5 5 6 4 4 4 4 4 6
9 6 9 6 9 4 7 2 3 3 4 4 5 5 6 13 11 8 9 8 8 9 9 9 8 7 8 7 7 7 7 7 6 5 6 6 5 5 6 5 5 6 6 7
6 7 5 5 2 1 3 3 2 5 4 5 8 8 10 10 13 11 10 9 8 8 7 7 7 6 5 4 5 6 5 6 4 4 5 5 5 6 6 7 8 10 14 16
Wind_Direction
168 175 207 194 181 120 140 182 189 245 246 197 240 255 260 255 247 253 255 252 243 239 255 247 238 224 222 220 216 219 207 203 178 174 191 213 218 219 221 224 223 226 223 218
159 232 187 170 190 176 147 171 218 284 281 191 289 262 252 250 232 234 238 243 240 250 250 252 244 219 210 215 221 220 220 196 191 194 189 184 176 210 215 211 219 217 217 216
200 193 164 168 167 192 199 197 166 221 331 264 318 279 255 241 230 229 230 233 233 231 243 246 243 221 210 220 210 213 218 205 199 196 145 124 122 141 183 210 216 215 215 212
230 212 156 154 208 163 224 172 174 192 75 244 40 284 269 279 263 222 238 229 236 234 237 242 242 229 207 223 208 215 211 204 199 181 187 192 202 209 205 187 185 190 205 214
209 168 168 193 193 162 245 166 178 167 175 337 213 277 260 11 277 268 243 237 236 241 237 247 233 222 223 228 214 216 209 199 186 187 194 194 208 218 163 179 186 194 199 210
203 201 187 194 156 176 150 92 59 64 107 263 228 188 206 188 210 250 266 270 260 260 249 255 262 242 225 225 225 218 197 205 192 185 190 192 203 184 184 182 198 188 194 205
168 198 193 145 112 85 159 132 128 262 204 236 300 192 252 238 233 229 255 264 259 268 263 277 279 254 233 212 210 206 198 196 182 184 184 192 199 191 201 183 189 177 161 155
203 202 184 179 175 167 197 172 163 200 197 263 115 231 249 238 277 253 255 252 266 262 264 266 265 243 237 214 199 180 171 163 170 174 178 178 178 179 167 163 155 148 144 131
198 232 95 206 157 153 166 218 180 104 69 45 228 290 287 257 266 268 275 268 259 246 251 267 272 217 206 191 180 166 153 154 159 150 139 143 138 141 146 135 118 120 129 144
223 271 195 190 133 208 185 142 160 154 174 251 262 271 235 279 246 242 259 262 284 245 219 236 237 206 187 183 171 152 162 163 150 141 138 138 140 135 131 133 138 146 153 138
169 195 284 130 197 189 167 190 186 180 170 193 263 258 218 234 227 243 268 267 265 273 255 236 232 240 209 171 176 182 175 172 169 155 150 146 148 145 143 146 157 158 141 135
204 255 218 210 282 236 213 199 190 195 213 236 253 254 250 226 227 206 261 259 280 258 243 207 212 200 197 205 203 201 194 187 188 169 154 155 151 157 158 165 161 149 148 147
185 212 228 216 244 280 212 215 212 223 65 213 207 258 230 194 237 235 261 291 290 281 223 206 206 210 215 216 209 203 203 205 188 173 165 164 170 171 175 168 166 169 153 156
180 221 230 234 230 154 204 211 214 210 221 233 224 255 227 184 234 252 251 257 261 230 219 236 238 228 225 217 206 212 220 200 190 185 178 183 189 184 177 177 176 170 172 175
283 248 228 247 253 260 225 215 214 218 224 221 234 242 248 229 231 227 231 246 249 276 250 232 238 235 231 223 215 209 213 199 191 189 195 206 190 183 171 174 172 182 188 205
236 253 235 247 242 234 230 214 234 230 230 237 246 250 251 251 234 227 236 246 248 239 238 248 240 241 232 223 218 216 210 203 184 197 210 186 186 183 179 178 169 173 202 239
282 272 262 271 279 275 244 221 221 241 238 236 237 241 254 260 229 229 238 217 240 242 234 238 236 237 242 226 215 210 210 181 192 204 202 192 173 178 182 181 172 182 209 205
207 276 305 274 229 253 279 212 209 217 221 238 254 265 267 263 253 249 218 211 228 225 237 241 245 240 247 252 225 215 177 188 199 210 205 174 174 179 182 177 195 196 216 239
210 178 223 254 285 302 308 212 193 194 236 229 231 238 244 255 262 241 210 216 222 219 227 230 22 21 34 31 340 220 183 188 196 221 172 145 151 164 168 189 285 289 259 256
220 224 209 254 270 267 258 279 241 231 252 227 222 234 245 255 259 260 262 181 131 87 77 83 61 56 41 2 1 85 69 71 52 35 59 81 85 84 76 15 304 249 262 280
179 200 214 237 247 240 244 275 144 203 257 255 220 226 236 238 234 251 128 87 80 70 77 71 64 63 39 24 58 70 68 62 48 37 40 48 44 30 27 356 304 292 298 297
189 184 199 218 235 242 183 158 181 228 281 282 265 231 235 241 169 103 93 102 94 84 73 68 72 60 37 28 54 68 56 31 25 20 42 29 26 8 359 334 327 307 299 301
241 208 212 204 207 224 227 230 235 76 283 279 178 272 306 113 128 126 121 103 95 86 77 63 80 74 48 38 34 56 32 18 16 10 17 21 12 8 345 336 324 322 309 300
248 197 195 96 236 235 237 302 84 79 249 331 323 315 281 135 132 122 115 112 101 90 80 65 61 66 58 39 41 43 23 11 3 346 12 12 12 351 346 334 326 315 311 311
236 152 208 248 264 314 263 211 88 138 115 111 55 41 91 114 101 86 92 91 88 84 72 61 61 56 43 35 39 20 18 12 8 8 4 1 355 346 334 336 328 320 306 304
199 206 179 234 62 317 327 25 113 153 148 121 118 77 51 88 102 99 90 67 63 56 62 78 70 60 37 23 21 21 4 11 0 7 359 355 343 340 336 332 325 321 311 312